User: anonymous   Login
Location: Utrecht
(52.0830°N, 5.1330°E)
Time: 04:30:36
(UTC+02:00)
Language:

Cosmos 1092 Rocket - Orbit

View from above orbital plane
View from above orbital plane
View from above satellite
View from above satellite

Ground track
Ground track

The orbit data is extracted from the following two-line orbital elements,

1 11327U 79030B   15245.03318878  .00000114  00000-0  99523-4 0  9996
2 11327  82.9469  61.5760 0027029 208.5063 265.7396 13.76967343829111
Epoch (UTC): 02 September 2015 00:47:47
Eccentricity: 0.0027029
inclination: 82.9469°
perigee height: 955 km
apogee height: 994 km
right ascension of ascending node: 61.5760°
argument of perigee: 208.5063°
revolutions per day: 13.76967343
mean anomaly at epoch: 265.7396°
orbit number at epoch: 82911

The dashed part of the orbit path shows where the satellite is in the earth's shadow,  

DLR